Presure
97 135 140 115 115 142 121 121 109 150 127 99 125 152 101 98 111 110 125 122 115 151 143 152 154 133 134 144 109 171 153 135 141 148 148 146 147 147 144 138 133 143 145
133 115 144 146 123 127 121 126 127 129 105 153 149 148 126 151 166 121 116 113 126 159 131 170 141 114 172 172 158 136 103 104 169 97 95 95 96 145 146 150 149 145 148
150 149 104 134 114 135 112 119 138 123 99 124 147 146 128 117 136 153 110 113 131 124 137 164 125 131 162 94 92 96 135 101 98 97 136 113 98 111 133 141 94 120 147
100 152 148 121 136 107 98 116 117 109 122 125 128 133 114 121 105 146 106 114 135 156 153 165 93 91 96 89 96 100 95 94 95 96 96 96 93 94 96 94 97 126 126
134 138 132 150 98 96 149 95 118 127 122 130 162 120 119 107 146 104 111 131 147 116 101 98 157 99 95 95 97 97 100 92 92 102 98 95 132 115 96 93 94 103 96
137 122 133 147 123 129 120 103 110 119 125 133 110 107 134 109 111 106 104 106 101 97 100 100 103 104 99 177 100 101 96 96 107 136 107 98 135 98 141 106 146 147 129
134 130 134 121 141 116 113 123 113 113 117 132 139 135 142 130 117 103 100 96 101 104 102 99 101 100 103 177 97 95 149 148 157 106 140 146 92 148 140 157 148 153 148
127 135 141 148 128 132 105 130 121 112 115 118 123 136 119 124 136 97 114 125 107 102 102 102 100 99 95 97 131 97 144 155 145 169 151 147 116 137 111 115 148 142 216
128 156 159 141 152 125 131 122 125 105 103 104 120 114 128 111 120 149 117 98 103 100 99 95 97 100 98 91 92 134 122 156 107 106 103 144 103 143 137 134 132 180 174
168 141 169 160 131 97 103 141 103 105 105 109 111 122 109 112 110 109 104 98 102 102 98 100 97 99 151 92 97 114 77 165 154 140 83 90 146 141 104 179 167 202 221
164 168 168 146 135 142 129 131 128 109 127 109 106 123 97 133 103 132 117 103 108 143 97 99 103 93 134 102 100 167 76 74 83 76 95 143 146 126 101 153 90 203 129
161 159 167 171 167 133 135 125 145 128 102 108 119 114 104 120 153 169 124 99 131 94 99 99 79 162 121 105 124 76 78 88 119 170 129 89 81 113 118 158 203 181 125
144 116 126 187 122 115 124 123 125 162 168 155 113 154 159 144 101 173 98 134 176 90 99 102 143 149 84 134 81 83 79 155 112 154 165 141 121 115 156 89 208 79 195
151 178 183 199 183 142 129 150 173 160 157 118 148 160 98 157 96 126 169 128 97 101 138 104 76 153 149 76 86 79 86 163 172 135 77 116 125 182 194 186 197 211 205
117 106 181 184 184 190 183 172 164 162 166 133 156 163 163 162 100 138 164 165 132 74 93 164 74 78 124 102 157 122 166 150 173 159 150 173 187 162 201 198 161 153 206
89 138 147 146 159 121 145 185 162 155 151 158 161 162 93 133 158 90 163 136 162 164 151 155 83 83 88 88 117 86 176 176 130 151 174 166 160 169 210 178 193 207 205
192 85 185 135 181 173 172 115 158 189 153 152 101 154 122 163 158 162 74 156 76 81 158 112 83 88 88 90 173 116 169 136 138 170 163 190 147 201 203 198 206 203 203
192 200 199 92 140 189 125 183 185 143 133 186 178 157 159 149 149 90 170 137 91 78 143 84 83 90 137 188 97 162 191 197 162 195 181 199 172 203 170 202 208 201 197
209 168 143 200 204 150 200 192 186 108 104 142 143 187 172 176 138 185 141 157 76 87 83 123 107 144 182 177 174 184 189 194 191 136 200 196 199 200 199 203 199 181 180
171 200 119 110 122 172 125 196 86 124 131 187 82 157 92 184 118 90 154 80 88 139 100 97 105 152 168 185 180 191 149 144 206 194 196 199 198 194 208 204 193 192 189
211 85 216 195 195 197 82 86 87 92 89 149 185 187 166 97 101 186 100 109 185 187 186 190 194 190 182 188 196 143 172 183 198 176 162 190 194 194 192 197 191 182 186
151 94 88 119 204 208 176 176 86 204 84 84 110 104 179 179 128 132 176 178 171 183 181 185 195 187 188 189 194 191 189 190 193 197 197 192 190 191 193 177 183 180 179
92 157 149 130 141 183 92 125 199 151 149 203 202 138 191 188 183 181 180 179 174 172 173 183 186 188 189 188 164 150 192 191 193 192 192 182 197 187 182 184 185 173 184
110 222 207 181 198 126 87 198 180 106 98 202 108 198 196 195 192 192 193 191 189 189 191 186 189 186 133 187 190 186 186 185 184 186 175 185 184 182 185 186 169 184 192
215 119 171 76 158 77 78 80 135 94 86 134 198 195 202 198 195 194 190 190 192 190 188 184 186 185 186 190 188 187 186 182 184 182 171 183 177 180 189 181 193 185 177
221 222 128 147 158 190 175 174 210 198 215 177 175 171 174 188 199 184 194 193 191 188 186 188 191 189 190 191 188 187 187 187 173 173 181 173 180 157 191 183 144 157 199
Wind_Speed
21 28 30 23 21 26 21 18 17 21 15 14 16 21 15 15 15 13 16 17 16 25 28 26 30 29 30 33 18 33 36 28 33 35 35 35 35 36 36 35 33 37 37
32 26 34 33 25 25 23 22 21 20 17 23 22 22 16 23 24 16 15 13 19 27 25 27 30 15 28 32 35 29 15 15 37 14 13 13 13 39 39 41 40 39 40
41 40 23 34 24 31 22 23 27 22 15 19 24 24 19 18 23 27 14 15 23 21 23 29 16 31 30 12 14 14 33 16 17 17 35 23 16 23 37 40 17 29 44
22 43 39 31 34 23 19 24 23 21 22 22 22 23 20 21 19 28 16 18 24 29 29 30 13 14 15 17 18 18 18 19 19 19 19 19 19 18 18 20 21 36 36
37 40 38 42 24 22 37 18 24 28 24 26 34 21 22 21 32 19 17 24 28 18 13 15 28 14 17 18 19 20 21 21 23 26 24 22 44 33 20 23 24 32 25
42 38 41 42 33 38 30 25 25 26 27 29 23 22 29 21 20 21 20 18 16 17 16 16 15 16 17 33 20 22 22 23 27 35 31 27 44 28 50 26 53 55 47
43 41 43 37 44 30 30 34 28 24 25 30 31 30 30 28 25 22 22 19 20 20 19 18 17 17 20 35 22 23 38 39 39 31 45 45 29 47 47 54 53 54 57
42 45 47 49 42 44 26 39 34 26 29 31 33 35 30 30 33 22 29 31 23 20 20 20 20 20 21 23 31 24 40 41 41 41 45 43 39 52 44 42 54 60 47
44 57 57 49 51 41 43 35 38 28 29 29 35 28 35 30 29 36 28 23 24 22 23 22 22 24 26 24 26 38 35 42 35 40 29 47 32 52 56 58 56 52 54
67 49 64 59 44 30 31 43 32 32 33 33 32 38 29 31 30 29 25 24 26 27 24 26 24 26 41 29 31 39 26 43 45 49 28 33 49 53 41 53 51 51 42
63 67 64 53 48 50 43 44 47 36 42 37 32 41 29 39 28 40 31 27 33 38 27 28 32 27 38 31 33 43 29 29 37 30 39 46 51 48 50 46 34 49 42
66 61 66 66 64 46 47 45 52 45 30 37 42 39 31 34 41 45 36 28 38 25 31 31 23 44 35 34 41 32 36 43 51 50 48 47 33 53 55 56 58 55 41
56 42 48 71 42 38 43 45 47 59 59 53 42 52 49 43 30 48 20 38 47 26 31 36 43 46 34 42 39 42 40 49 49 52 54 57 56 62 50 40 59 45 55
57 71 72 68 67 55 48 60 61 62 59 45 53 54 29 52 29 51 49 40 30 34 42 31 33 49 49 37 40 38 52 53 55 49 36 60 60 62 64 61 61 58 56
46 38 72 71 72 67 65 68 65 64 65 47 55 57 57 56 35 52 53 52 42 26 33 54 36 36 44 45 53 51 59 60 59 60 62 63 65 58 66 62 61 67 56
27 56 61 58 62 49 55 68 64 63 61 61 61 59 30 49 58 34 57 46 56 57 53 55 41 45 45 49 53 54 63 64 62 63 65 61 61 64 64 64 65 61 59
70 20 73 52 72 71 68 40 58 67 64 61 38 58 49 63 60 61 30 58 34 37 60 50 47 47 51 55 64 61 64 65 66 68 65 71 62 68 65 65 66 63 61
75 73 73 24 48 72 46 71 71 61 55 70 69 63 63 60 60 38 66 58 42 44 58 47 51 55 62 67 62 62 68 68 67 69 68 68 68 67 68 66 65 63 62
75 59 50 71 70 52 70 71 71 36 39 55 53 69 64 68 54 67 56 60 44 50 50 55 60 65 69 69 68 71 71 69 70 67 68 67 69 67 68 67 65 58 58
65 72 41 37 57 58 37 72 32 46 51 70 30 61 39 68 52 47 62 48 51 64 61 63 67 69 69 70 71 71 68 67 66 67 68 67 67 68 68 68 66 65 64
74 30 72 69 70 70 28 32 31 36 32 60 71 71 65 48 54 70 55 62 71 72 73 72 72 72 72 69 65 70 74 74 69 70 70 70 69 68 69 68 66 63 67
61 33 32 43 70 68 60 61 34 72 32 39 46 53 71 72 66 67 74 75 73 74 74 72 71 73 73 72 70 70 71 71 71 71 70 70 71 71 69 68 68 64 65
28 55 55 45 50 64 41 51 69 54 55 73 72 57 73 72 73 75 76 77 77 78 79 76 75 74 73 74 71 73 72 73 74 74 74 74 75 73 71 72 72 64 75
54 83 76 65 70 44 31 66 62 40 44 70 53 71 72 72 72 72 74 74 75 76 74 76 75 75 73 77 76 75 74 75 76 77 78 78 78 77 78 76 62 78 83
81 43 60 33 60 36 29 38 48 48 48 61 68 70 72 72 72 73 73 75 75 75 76 78 77 77 78 80 79 79 78 78 77 78 80 82 80 79 83 80 86 81 74
83 84 48 57 60 63 57 56 62 65 68 65 65 65 64 70 73 71 74 75 76 78 78 80 79 79 81 82 82 83 83 81 79 80 83 82 86 66 89 82 76 78 91
Wind_Direction
225 228 231 230 224 236 230 229 224 258 244 237 255 274 243 255 253 248 272 276 282 280 281 277 278 291 291 284 300 265 274 282 279 274 273 279 279 281 283 290 298 289 289
228 227 233 228 232 231 227 234 246 239 232 266 268 270 260 279 284 260 259 264 283 280 286 283 283 281 268 266 273 282 310 311 269 313 312 311 313 284 286 287 288 289 289
240 235 227 227 229 231 240 231 244 239 245 242 271 270 259 246 271 280 253 263 277 282 288 283 293 287 273 302 304 304 285 313 310 311 283 297 306 297 292 289 288 301 291
235 239 233 229 228 235 238 238 239 237 240 246 254 261 241 255 243 275 252 266 279 283 280 286 291 301 298 306 304 306 302 303 301 299 298 299 298 297 295 297 297 289 292
238 227 225 240 238 245 237 249 243 246 242 254 263 248 246 239 276 246 260 270 276 272 263 271 290 279 289 291 293 295 301 300 303 305 294 293 294 290 283 285 283 290 282
227 231 227 237 235 231 238 248 250 247 250 255 244 240 269 239 243 243 251 255 260 269 268 273 284 284 282 278 295 303 290 291 305 279 302 290 288 287 288 274 285 286 284
230 232 230 235 233 244 241 239 248 252 254 255 260 263 263 261 253 248 263 270 264 268 272 276 285 288 303 281 290 292 274 275 273 290 283 279 285 281 282 282 285 294 288
237 234 233 237 234 232 245 235 239 254 255 257 257 259 259 263 262 262 271 273 270 274 279 285 288 295 296 301 289 299 276 276 275 279 275 278 289 288 294 298 289 291 302
238 244 245 237 247 239 238 248 240 252 257 260 259 258 263 259 263 271 264 274 276 279 284 291 294 301 302 300 297 278 286 275 293 303 290 280 297 281 286 292 293 296 294
243 243 247 247 247 240 243 244 251 253 254 261 262 259 260 263 265 266 263 270 273 276 285 290 291 298 274 296 299 295 310 282 274 279 299 301 279 282 289 298 290 300 304
244 246 247 245 244 245 243 243 247 252 245 259 259 257 266 266 270 267 269 269 272 283 288 289 288 289 289 293 294 286 302 301 303 300 296 284 279 285 303 299 293 304 283
244 246 248 249 250 247 247 248 254 256 265 259 255 261 268 271 274 272 270 275 276 276 283 286 302 284 289 288 281 298 299 298 287 288 285 297 300 293 292 286 311 296 300
242 245 242 250 244 244 247 248 248 260 262 259 259 266 268 270 268 276 281 274 280 276 282 286 280 284 291 288 297 297 298 282 294 280 288 283 293 292 292 298 312 292 308
245 247 248 250 249 249 247 252 255 259 261 255 261 266 262 270 267 265 277 277 276 278 279 283 298 282 283 301 298 298 292 286 293 290 297 292 292 301 307 306 310 310 311
244 249 247 249 251 249 250 253 255 258 261 261 263 266 269 271 265 270 277 278 275 295 286 279 297 298 289 294 284 292 289 285 296 295 294 297 301 296 309 308 293 289 310
252 247 248 247 252 255 255 253 254 257 260 262 264 266 267 269 273 277 276 279 278 280 283 284 292 292 295 295 293 287 295 296 289 292 297 295 295 300 308 304 308 308 312
244 240 246 247 248 251 254 255 256 256 258 261 266 266 268 268 272 274 292 276 295 295 283 288 292 295 293 295 291 292 294 285 286 296 295 300 291 305 305 304 306 310 312
244 245 247 249 254 251 258 254 256 257 260 260 261 265 267 270 273 287 275 278 290 296 284 290 291 292 290 291 294 292 295 298 292 299 298 301 299 302 296 306 307 310 310
242 244 247 247 248 253 252 253 255 257 263 263 266 265 268 269 275 274 279 279 293 287 287 287 285 288 289 290 292 295 297 298 298 290 298 299 301 304 305 304 307 307 308
243 242 241 243 251 249 254 252 266 260 263 261 274 266 278 269 275 281 277 288 284 280 290 291 291 287 288 290 293 297 291 288 295 296 297 299 301 302 302 303 306 307 308
236 233 240 244 245 248 255 257 265 268 270 265 264 265 269 282 282 273 284 283 280 281 282 284 287 288 288 291 291 287 292 295 297 295 294 297 299 300 302 304 305 305 308
247 239 236 244 246 247 247 249 269 254 267 276 274 280 267 269 277 278 274 276 279 280 283 285 287 287 289 291 294 293 292 294 294 295 296 296 298 299 302 302 304 304 307
257 236 247 252 243 248 252 254 252 259 262 260 263 270 267 269 271 273 274 276 278 280 281 284 285 287 290 292 288 289 295 296 296 297 298 297 300 301 303 303 306 303 309
256 239 241 246 247 246 257 253 259 273 274 262 278 266 268 270 272 274 275 277 278 280 282 284 286 288 284 290 292 292 294 294 295 297 298 300 301 303 303 304 298 306 307
236 246 242 266 252 268 285 271 265 272 277 274 266 267 268 270 272 273 276 277 279 281 282 283 285 287 289 289 291 291 291 292 295 297 299 300 301 302 302 305 304 305 302
234 236 250 250 252 251 255 256 257 258 256 266 267 270 272 271 271 275 274 276 278 279 282 283 285 287 288 288 289 289 291 293 295 295 296 299 300 287 301 303 285 290 305